weather.gov     
National Weather Service

Terminal Aerodrome Forecast
NWS Homepage
This page is being discontinued on March 12, 2014.
The same data is available at this site. Please update your bookmarks.
Thank you, and we apologize for the inconvenience.
Please send an email to SR-SRH.Webmaster@noaa.gov with any concerns.


Current Version
Previous Version:    01  02  03  04  05  06  07  08  09  10  11  12  13  14  15  16  17  18  19  20  21  22  23  24  25  26  27  28  29  30  
   31  32  33  34  35  
[Printable]
003
FTUS43 KDDC 232232 AAA
TAFDDC
TAF AMD
KDDC 232232Z 2323/2418 19022G30KT P6SM BKN100
     FM240000 VRB20G30KT P6SM VCTS BKN050CB
     FM240130 11015KT P6SM BKN200
     FM240500 15012KT P6SM SCT250
     FM241200 19008KT P6SM BKN250=


003
FTUS43 KDDC 232232 AAA
TAFDDC
TAF AMD
KDDC 232232Z 2323/2418 19022G30KT P6SM BKN100
     FM240000 VRB20G30KT P6SM VCTS BKN050CB
     FM240130 11015KT P6SM BKN200
     FM240500 15012KT P6SM SCT250
     FM241200 19008KT P6SM BKN250=




U.S. Dept. of Commerce
NOAA National Weather Service
1325 East West Highway
Silver Spring, MD 20910
E-mail: w-nws.webmaster@noaa.gov
Page last modified: May 16, 2007
NATIONAL WEATHER SERVICE: for Safety, for Work, for Fun - FOR LIFE